Wausau, WI

4:40 PM CDT on June 24, 2017 (GMT -0500)
Wausau Downtown

Weather History for KAUW - August, 2013

Change the Weather History Date:

Monday, August 26, 2013

  Actual Average Record
Temperature  
Mean Temperature 78 °F 66 °F  
Max Temperature 88 °F 76 °F 93 °F (1953)
Min Temperature 68 °F 56 °F 36 °F (1915)
Degree Days  
Heating Degree Days 0 2  
Month to date heating degree days 26 31  
Since 1 June heating degree days 142 143  
Since 1 July heating degree days 56 54  
Cooling Degree Days 13 3  
Month to date cooling degree days 93 103  
Year to date cooling degree days 399 363  
Since 1 June cooling degree days 362 344  
Growing Degree Days 28 (Base 50)    
Moisture  
Dew Point 70 °F    
Average Humidity 77    
Maximum Humidity 94    
Minimum Humidity 59    
Precipitation  
Precipitation 1.69 in 0.13 in 1.69 in (2013)
Month to date precipitation 3.28 3.53  
Year to date precipitation 27.38 21.58  
Snow  
Snow 0.00 in 0.00 in 0.00 in ()
Month to date snowfall 0.0 0.0  
Since 1 June snowfall 0.0  
Since 1 July snowfall 0.0 0.0  
Snow Depth 0.00 in    
Sea Level Pressure  
Sea Level Pressure 30.02 in    
Wind  
Wind Speed 6 mph (South)    
Max Wind Speed 17 mph    
Max Gust Speed 24 mph    
Visibility 7 miles    
Events Rain , Thunderstorm    
T = Trace of Precipitation, MM = Missing Value Source: NWS Daily Summary

Daily Weather History Graph

Daily Weather History Graph

Search for Another Location

Airport or City:

Trip Planner

Search our weather history database for the weather conditions in past years. The results will help you decide how hot, cold, wet, or windy it might be!

Date:

Astronomy

Aug. 26, 2013 Rise Set
Actual Time 6:13 AM CDT 7:45 PM CDT
Civil Twilight 5:43 AM CDT 8:16 PM CDT
Nautical Twilight 5:05 AM CDT 8:53 PM CDT
Astronomical Twilight 4:25 AM CDT 9:33 PM CDT
Moon 10:37 PM CDT (8/26) 12:33 PM CDT (8/26)
Length of Visible Light 14h 33m
Length of Day
13h 32m
Waning Gibbous, 66% of the Moon is Illuminated
Aug 26
Waning Gibbous
Aug 28
Last Quarter
Sep 5
New
Sep 12
First Quarter
Sep 19
Full

Hourly Weather History & Observations

Time (CDT) Temp. Heat Index Dew Point Humidity Pressure Visibility Wind Dir Wind Speed Gust Speed Precip Events Conditions
12:54 AM 77.0 °F - 70.0 °F 79% 30.03 in 9.0 mi SW 6.9 mph - N/A   Clear
1:54 AM 75.9 °F - 70.0 °F 82% 29.99 in 8.0 mi SSW 6.9 mph - N/A   Clear
2:54 AM 75.9 °F - 69.1 °F 79% 29.99 in 8.0 mi SW 5.8 mph - N/A   Clear
3:54 AM 75.0 °F - 68.0 °F 79% 30.01 in 9.0 mi SW 3.5 mph - N/A   Clear
4:54 AM 75.0 °F - 66.9 °F 76% 30.01 in 9.0 mi Calm Calm - N/A   Overcast
5:47 AM 75.2 °F - 64.4 °F 69% 30.08 in 10.0 mi NNE 12.7 mph 19.6 mph N/A Thunderstorm Overcast
5:54 AM 75.9 °F - 63.0 °F 64% 30.06 in 10.0 mi NNE 9.2 mph 21.9 mph N/A Thunderstorm Overcast
6:36 AM 68.0 °F - 66.2 °F 94% 30.12 in 1.8 mi Variable 4.6 mph - 0.16 in Rain , Thunderstorm Heavy Thunderstorms and Rain
6:47 AM 68.0 °F - 66.2 °F 94% 30.11 in 1.0 mi East 4.6 mph - 0.48 in Rain , Thunderstorm Heavy Thunderstorms and Rain
6:54 AM 68.0 °F - 66.9 °F 96% 30.09 in 1.2 mi Variable 5.8 mph - 0.63 in Rain , Thunderstorm Heavy Thunderstorms and Rain
7:02 AM 68.0 °F - 66.2 °F 94% 30.10 in 2.0 mi ESE 8.1 mph - 0.08 in Rain , Thunderstorm Heavy Thunderstorms and Rain
7:14 AM 68.0 °F - 66.2 °F 94% 30.11 in 3.0 mi SSE 4.6 mph - 0.15 in Rain , Thunderstorm Heavy Rain
7:30 AM 68.0 °F - 66.2 °F 94% 30.10 in 2.0 mi SSW 8.1 mph - 0.29 in Rain , Thunderstorm Heavy Thunderstorms and Rain
7:46 AM 68.0 °F - 66.2 °F 94% 30.10 in 1.5 mi SSE 3.5 mph - 0.41 in Rain , Thunderstorm Heavy Thunderstorms and Rain
7:54 AM 68.0 °F - 66.9 °F 96% 30.10 in 2.0 mi Calm Calm - 0.47 in Rain , Thunderstorm Heavy Thunderstorms and Rain
8:01 AM 68.0 °F - 66.2 °F 94% 30.12 in 1.5 mi SSW 8.1 mph - 0.09 in Rain , Thunderstorm Heavy Thunderstorms and Rain
8:17 AM 68.0 °F - 66.2 °F 94% 30.09 in 3.0 mi South 12.7 mph - 0.27 in Rain , Thunderstorm Heavy Thunderstorms and Rain
8:54 AM 68.0 °F - 66.9 °F 96% 30.09 in 8.0 mi SW 13.8 mph - 0.37 in Rain , Thunderstorm Light Thunderstorms and Rain
9:20 AM 69.8 °F - 68.0 °F 94% 30.08 in 1.8 mi SSW 12.7 mph - 0.02 in Rain , Thunderstorm Light Thunderstorms and Rain
9:35 AM 69.8 °F - 68.0 °F 94% 30.04 in 10.0 mi South 13.8 mph - 0.02 in Rain , Thunderstorm Light Rain
9:39 AM 69.8 °F - 68.0 °F 94% 30.04 in 10.0 mi South 11.5 mph - 0.02 in Rain , Thunderstorm Light Rain
9:54 AM 69.1 °F - 68.0 °F 96% 30.03 in 10.0 mi South 16.1 mph - 0.03 in Rain Light Rain
10:39 AM 71.6 °F - 69.8 °F 94% 30.03 in 10.0 mi SW 9.2 mph - 0.02 in   Scattered Clouds
10:54 AM 73.0 °F - 70.0 °F 90% 30.02 in 10.0 mi Variable 5.8 mph - 0.02 in   Partly Cloudy
11:54 AM 75.9 °F - 69.1 °F 79% 30.01 in 10.0 mi WSW 6.9 mph - N/A   Clear
12:54 PM 82.0 °F 85.9 °F 70.0 °F 67% 29.99 in 10.0 mi SW 12.7 mph 20.7 mph N/A   Clear
1:54 PM 84.9 °F 89.4 °F 70.0 °F 61% 29.97 in 10.0 mi WSW 11.5 mph - N/A   Clear
2:54 PM 87.1 °F 92.8 °F 71.1 °F 59% 29.96 in 10.0 mi WNW 11.5 mph - N/A   Partly Cloudy
3:54 PM 87.1 °F 92.8 °F 71.1 °F 59% 29.95 in 10.0 mi Variable 4.6 mph - N/A   Clear
4:54 PM 87.1 °F 92.8 °F 71.1 °F 59% 29.94 in 10.0 mi Calm Calm - N/A   Clear
5:54 PM 87.1 °F 93.6 °F 72.0 °F 61% 29.94 in 10.0 mi Calm Calm - N/A   Clear
6:54 PM 84.0 °F 90.2 °F 73.0 °F 69% 29.92 in 10.0 mi East 6.9 mph - N/A   Clear
7:54 PM 80.1 °F 84.5 °F 73.9 °F 81% 29.93 in 10.0 mi East 4.6 mph - N/A   Clear
8:54 PM 80.1 °F 84.5 °F 73.9 °F 81% 29.94 in 9.0 mi Calm Calm - N/A   Clear
9:54 PM 79.0 °F - 73.9 °F 84% 29.94 in 10.0 mi ESE 5.8 mph - N/A   Scattered Clouds
10:10 PM 78.8 °F - 73.4 °F 83% 29.95 in 10.0 mi East 4.6 mph - 0.00 in Rain , Thunderstorm Light Rain
10:25 PM 78.8 °F - 75.2 °F 89% 29.95 in 9.0 mi East 3.5 mph - 0.01 in Rain Light Rain
10:54 PM 77.0 °F - 75.0 °F 94% 29.94 in 7.0 mi Calm Calm - 0.03 in Rain Light Rain
11:01 PM 77.0 °F - 75.2 °F 94% 29.95 in 6.0 mi Calm Calm - 0.01 in Rain , Thunderstorm Light Thunderstorms and Rain
11:29 PM 77.0 °F - 75.2 °F 94% 29.95 in 5.0 mi Calm Calm - 0.03 in Rain Light Rain
11:54 PM 77.0 °F - 75.9 °F 96% 29.94 in 5.0 mi Calm Calm - 0.05 in Rain Light Rain